Regional Weather Roundup
Issued by NWS Newport/Morehead, NC

Current Version | Previous Version | Text Only | Print | Product List | Glossary Off
Versions: 1 2 3 4 5 6 7 8 9 10 11 12 13 14 15 16 17 18 19 20 21 22 23 24 25 26 27 28 29 30 31 32 33 34 35 36 37 38 39 40 41 42 43 44 45 46 47 48 49 50
000 ASUS42 KMHX 071525 RWRMHX WEATHER ROUNDUP FOR EASTERN NORTH CAROLINA NATIONAL WEATHER SERVICE NEWPORT/MOREHEAD CITY NC 1000 AM EST SUN FEB 07 2016 NOTE: "FAIR" INDICATES FEW OR NO CLOUDS BELOW 12,000 FEET WITH NO SIGNIFICANT WEATHER AND/OR OBSTRUCTIONS TO VISIBILITY NCZ015>017-031-032-045>047-102-103-071600- NORTH COAST CITY SKY/WX TMP DP RH WIND PRES REMARKS EDENTON CLOUDY 42 32 68 N12 30.04S ELIZABETH CITY CLOUDY 43 32 65 N21G29 30.04F KITTY HAWK DRIZZLE 45 39 78 N13G20 30.01S MANTEO LGT RAIN 45 42 89 NE17G25 30.00F $$ NCZ045>047-081-094-103-104-071600- CENTRAL COAST CITY SKY/WX TMP DP RH WIND PRES REMARKS FRISCO RAIN 47 45 93 NE16G29 29.91F SWANQUARTER N/A 41 N/A N/A NE16G29 29.94S $$ NCZ095-097-098-100-101-071600- SOUTHERN COAST CITY SKY/WX TMP DP RH WIND PRES REMARKS BEAUFORT RAIN 40 37 89 N20G30 29.92F FOG CEDAR ISLAND N/A 45 N/A N/A N26G38 29.97S JACKSONVILLE RAIN 35 31 85 N21 29.93F FOG PINEY ISLAND RAIN N/A N/A N/A N21G31 29.93F WILMINGTON RAIN 36 32 85 N20G28 29.89F FOG $$ NCZ011>013-027>030-043-044-078>080-089-090>093-098-071600- COASTAL PLAIN CITY SKY/WX TMP DP RH WIND PRES REMARKS AHOSKIE CLOUDY 37 28 70 N8 30.08S CLINTON RAIN 35 33 95 NE16G23 30.02F ELIZABETHTOWN RAIN 35 33 94 N6G17 29.98F GOLDSBORO LGT RAIN 34 34 100 N15G21 30.02F GREENVILLE LGT RAIN 36 34 93 N9 30.06F HAVELOCK RAIN 39 35 86 N21G29 29.95F FOG KENANSVILLE MIX PCPN 34 33 95 N14G23 30.00F KINSTON RAIN 36 32 87 N15 30.03F NEW BERN LGT RAIN 37 32 82 N13 30.00F RICHLANDS CLOUDY 34 27 75 N13G21 29.97F ROCKY MOUNT LGT RAIN 34 30 85 N10 30.07F FOG WASHINGTON LGT RAIN 36 32 87 N5 30.03S WHITEVILLE RAIN 35 33 92 N9G21 29.92F $$ AMZ130-135-150-152-154-156-158-170-250-252-270-ANZ085-086-088-633-658-670-071600- MARINE OBSERVATIONS STATION/POSITION TIME TEMP WIND PRES WAVE SWELL AIR SEA DIR/SP/G HT/PER HT/PER (UTC) (F) (DEG/KT/KT) (MB) (FT/S) (FT/S) CHESAPEAKE LIGHT 1500 43 40/ 27/ 29 1018.5 64 E VA BEACH 1450 50 54 40/ 23/ 27 1016.6 7/ 5 3/10 DUCK 1500 45 44 30/ 28/ 32 1016.2 2 E DUCK 1511 44 N/A 7/ 6 2/11 OREGON INLET 1500 46 46 10/ 16/ 23 1015.0 13E OREGON INLT 1500 47 N/A 8/ 6 2/11 HATTERAS CG 1500 47 48 20/ 25/ 31 1012.5 DIAMOND BUOY 1450 56 70 30/ 31/ 37 1010.5 10/ 7 3/11 CAPE LOOKOUT NOT AVBL BEAUFORT LAB 1500 41 49 10/ 21/ 29 1011.8 30 SE NEW RVR IN 1508 42 63 1006.5 30 SE NEW RVR IN 1425 64 N/A 11/ 7 2/11 27 SE WRIGHTSVLE 1408 47 360/ 33 1009.9 5 SE WRIGHTSVLE 1408 40 53 30/ 31/ 39 1011.2 225 S CAPE HAT 1450 65 69 130/ 21/ 27 N/A 10/ 7 3/11 41 SE CHARLESTON 1450 49 66 350/ 29/ 35 1009.4 12/ 9 8/ 9 $$

USA.gov is the U.S. government's official web portal to all federal, state and local government web resources and services.